Simultaneous Nadir Overpasses (SNOs) Predictions

Prediction of SNOs between GOES-17 and NOAA-19 Satellite Orbit:

Table of predicted SNOs for the next 14.0 days since TLE Epoch: 10/3/2025
Index Date Time (GOES-17) GOES-17 Lat,Lon NOAA-19 Lat,Lon Distance(km) Time Diff (sec)
1 10/05/2025 16:09:15 0.26, -89.53 0.94, -92.45 332.82 80
2 10/06/2025 15:53:55 0.25, -89.54 0.24, -89.37 18.77 80
3 10/07/2025 15:41:15 0.25, -89.54 -0.52, -86.30 369.92 80
4 10/09/2025 04:15:10 -0.26, -89.49 -1.26, -93.81 493.13 80
5 10/10/2025 04:02:30 -0.26, -89.49 -0.54, -90.74 141.71 80
6 10/11/2025 03:47:09 -0.26, -89.50 0.18, -87.66 209.76 80
7 10/13/2025 16:08:12 0.28, -89.56 0.88, -92.05 283.85 80
8 10/14/2025 15:52:52 0.28, -89.57 0.17, -88.97 68.04 80
9 10/15/2025 15:40:11 0.28, -89.58 -0.54, -85.89 420.00 80
10 10/17/2025 04:14:06 -0.29, -89.54 -1.16, -93.41 440.73 80
